Terminal Aerodrome Forecast
Issued by NWS

Home | Current Version | Previous Version | Text Only | Print | Product List | Glossary On
Versions: 1 2 3 4 5 6 7 8 9 10 11 12 13 14 15 16 17 18 19 20 21 22 23 24 25 26 27 28 29 30 31 32 33 34 35 36 37 38 39 40 41 42 43 44 45 46 47 48 49 50
000
FTAK31 PANC 282334
TAFACV
TAF
PACV 282334Z 2900/2924 09008KT P6SM VCSH BKN060
      TEMPO 2900/2904 09008G15KT
     FM290700 07006KT P6SM -RA OVC035
     FM291200 09008G15KT P6SM -RA SCT015 BKN025
     FM291900 09010G18KT 2SM RA BR SCT007 OVC015=

USA.gov is the U.S. government's official web portal to all federal, state and local government web resources and services.